Location: Passau
(48.5830°N, 13.4830°E)
Time: 11:50:16
(UTC+02:00)

N. Korean satellite - Pass Details

Date: 03 October 2021
Orbit: 450 x 495 km, 97.3° (Epoch: 15 October)

Event Time Altitude Azimuth Distance (km) Brightness Sun altitude
Rises 06:26:39 0° 13° (NNE) 2,552 10.4 -7.7°
Reaches altitude 10° 06:28:43 10° 15° (NNE) 1,675 9.5 -7.4°
Maximum altitude 06:32:19 80° 102° (ESE) 502 6.7 -6.8°
Drops below altitude 10° 06:35:57 10° 190° (S) 1,681 9.2 -6.2°
Sets 06:38:01 0° 192° (SSW) 2,562 10.1 -5.9°
